Weather History for LFBE - November, 2012

Change the Weather History Date:

Friday, November 30, 2012

  Actual Average (LFBA) Record (LFBA)
Temperature  
Mean Temperature 35 °F -  
Max Temperature 46 °F 50 °F 69 °F (2014)
Min Temperature 24 °F 40 °F 26 °F (2012)
Degree Days  
Heating Degree Days 30    
Moisture  
Dew Point 29 °F    
Average Humidity 86    
Maximum Humidity 100    
Minimum Humidity 57    
Precipitation  
Precipitation 0.00 in - - ()
Sea Level Pressure  
Sea Level Pressure 29.82 in    
Wind  
Wind Speed 3 mph ()    
Max Wind Speed 10 mph    
Max Gust Speed -    
Visibility 4.3 miles    
Events Fog    
Averages and records for this station are not official NWS values.
T = Trace of Precipitation, MM = Missing Value Source: Averaged Metar Reports

Daily Weather History Graph

Daily Weather History Graph

Search for Another Location

Airport or City:

Trip Planner

Search our weather history database for the weather conditions in past years. The results will help you decide how hot, cold, wet, or windy it might be!

Date:

Astronomy

Nov. 30, 2012 Rise Set
Actual Time 8:14 AM CET 5:18 PM CET
Civil Twilight 7:41 AM CET 5:51 PM CET
Nautical Twilight 7:05 AM CET 6:28 PM CET
Astronomical Twilight 6:29 AM CET 7:03 PM CET
Moon 7:00 PM CET (11/30) 9:35 AM CET (11/30)
Length of Visible Light 10h 10m
Length of Day
9h 04m
Full, 97% of the Moon is Illuminated
Nov 30
Full
Dec 6
Last Quarter
Dec 13
New
Dec 20
First Quarter
Dec 28
Full

Hourly Weather History & Observations

Time (CET) Temp. Windchill Dew Point Humidity Pressure Visibility Wind Dir Wind Speed Gust Speed Precip Events Conditions
12:00 AM 30.2 °F 26.7 °F 28.4 °F 93% 29.83 in 6.2 mi WSW 3.5 mph - N/A   Unknown
12:30 AM 32.0 °F 27.5 °F 28.4 °F 87% 29.80 in 6.2 mi WSW 4.6 mph - N/A   Unknown
1:00 AM 30.2 °F 26.7 °F 28.4 °F 93% 29.80 in 6.2 mi WSW 3.5 mph - N/A   Unknown
1:30 AM 30.2 °F - 26.6 °F 86% 29.80 in 5.6 mi Variable 2.3 mph - N/A   Unknown
2:00 AM 28.4 °F - 26.6 °F 93% 29.80 in 3.1 mi West 2.3 mph - N/A   Mist
2:30 AM 28.4 °F - 26.6 °F 93% 29.80 in - Variable 2.3 mph - N/A   Mist
3:00 AM 26.6 °F - 24.8 °F 93% 29.80 in - Calm Calm - N/A   Mist
3:30 AM 26.6 °F - 24.8 °F 93% 29.80 in 1.7 mi Calm Calm - N/A   Mist
4:00 AM 26.6 °F - 24.8 °F 93% 29.80 in - Calm Calm - N/A   Mist
4:30 AM 24.8 °F - 23.0 °F 93% 29.77 in - Calm Calm - N/A   Mist
5:00 AM 24.8 °F - 24.8 °F 100% 29.77 in 1.7 mi Calm Calm - N/A   Mist
5:30 AM 26.6 °F - 24.8 °F 93% 29.77 in 0.4 mi Calm Calm - N/A Fog Patches of Fog
6:00 AM 26.6 °F - 24.8 °F 93% 29.77 in 0.6 mi Calm Calm - N/A   Overcast
6:30 AM 26.6 °F 22.6 °F 24.8 °F 93% 29.77 in 0.2 mi WNW 3.5 mph - N/A Fog Light Freezing Fog
7:00 AM 24.8 °F 19.1 °F 24.8 °F 100% 29.80 in 0.1 mi WNW 4.6 mph - N/A Fog Light Freezing Fog
7:30 AM 24.8 °F - 23.0 °F 93% 29.80 in 1.3 mi Calm Calm - N/A   Partly Cloudy
8:00 AM 26.6 °F - 24.8 °F 93% 29.80 in - Variable 2.3 mph - N/A   Partly Cloudy
8:30 AM 26.6 °F - 26.6 °F 100% 29.80 in - Variable 2.3 mph - N/A   Mostly Cloudy
9:00 AM 28.4 °F - 26.6 °F 93% 29.80 in - Calm Calm - N/A   Mist
9:30 AM 30.2 °F - 28.4 °F 93% 29.80 in - Calm Calm - N/A   Mist
10:00 AM 32.0 °F 27.5 °F 30.2 °F 93% 29.83 in 0.9 mi West 4.6 mph - N/A   Mostly Cloudy
10:30 AM 32.0 °F 27.5 °F 30.2 °F 93% 29.83 in 0.1 mi WNW 4.6 mph - N/A Fog Light Freezing Fog
11:00 AM 32.0 °F - 32.0 °F 100% 29.83 in 0.2 mi Variable 2.3 mph - N/A Fog Fog
11:30 AM 33.8 °F - 32.0 °F 93% 29.83 in 0.2 mi Variable 1.2 mph - N/A Fog Fog
12:00 PM 35.6 °F - 33.8 °F 93% 29.83 in 0.8 mi Variable 2.3 mph - N/A Fog Patches of Fog
12:30 PM 37.4 °F 33.8 °F 37.4 °F 100% 29.80 in 3.1 mi West 4.6 mph - N/A   Scattered Clouds
1:00 PM 39.2 °F 35.0 °F 37.4 °F 93% 29.80 in 5.0 mi West 5.8 mph - N/A   Unknown
1:30 PM 41.0 °F 36.4 °F 35.6 °F 81% 29.80 in 5.6 mi West 6.9 mph - N/A   Unknown
2:00 PM 42.8 °F 41.1 °F 35.6 °F 76% 29.80 in 6.2 mi West 3.5 mph - N/A   Mostly Cloudy
2:30 PM 46.4 °F 44.3 °F 35.6 °F 66% 29.80 in 6.2 mi NW 4.6 mph - N/A   Mostly Cloudy
3:00 PM 44.6 °F 42.2 °F 32.0 °F 61% 29.80 in 6.2 mi NNE 4.6 mph - N/A   Scattered Clouds
3:30 PM 44.6 °F 40.7 °F 32.0 °F 61% 29.80 in 6.2 mi North 6.9 mph - N/A   Overcast
4:00 PM 44.6 °F 39.2 °F 30.2 °F 57% 29.80 in 6.2 mi NE 10.4 mph - N/A   Mostly Cloudy
4:30 PM 42.8 °F 37.5 °F 30.2 °F 61% 29.80 in 6.2 mi NNE 9.2 mph - N/A   Partly Cloudy
5:00 PM 41.0 °F 39.0 °F 30.2 °F 65% 29.83 in 6.2 mi North 3.5 mph - N/A   Mostly Cloudy
5:30 PM 39.2 °F 35.9 °F 30.2 °F 70% 29.83 in 6.2 mi North 4.6 mph - N/A   Mostly Cloudy
6:00 PM 37.4 °F - 30.2 °F 75% 29.83 in 6.2 mi North 2.3 mph - N/A   Partly Cloudy
6:30 PM 37.4 °F 34.9 °F 28.4 °F 70% 29.83 in 6.2 mi NNW 3.5 mph - N/A   Mostly Cloudy
7:00 PM 35.6 °F 30.7 °F 28.4 °F 75% 29.83 in 6.2 mi NW 5.8 mph - N/A   Partly Cloudy
7:30 PM 35.6 °F 32.8 °F 30.2 °F 81% 29.86 in 6.2 mi NNW 3.5 mph - N/A   Unknown
8:00 PM 33.8 °F 30.8 °F 28.4 °F 81% 29.86 in 6.2 mi Variable 3.5 mph - N/A   Unknown
8:30 PM 32.0 °F 26.4 °F 30.2 °F 93% 29.86 in 6.2 mi WSW 5.8 mph - N/A   Partly Cloudy
9:00 PM 33.8 °F 29.6 °F 30.2 °F 87% 29.89 in 6.2 mi WNW 4.6 mph - N/A   Unknown
9:30 PM 33.8 °F 30.8 °F 28.4 °F 81% 29.89 in 6.2 mi NW 3.5 mph - N/A   Unknown
10:00 PM 32.0 °F - 26.6 °F 80% 29.89 in 6.2 mi Variable 2.3 mph - N/A   Unknown
10:30 PM 30.2 °F - 26.6 °F 86% 29.89 in 6.2 mi Variable 1.2 mph - N/A   Unknown
11:00 PM 30.2 °F - 26.6 °F 86% 29.89 in 6.2 mi Calm Calm - N/A   Unknown
11:30 PM 30.2 °F 25.4 °F 26.6 °F 86% 29.89 in 6.2 mi West 4.6 mph - N/A   Unknown